Location: Ottawa
(45.4167°N, 75.7000°W)
Time: 22:00:13
(UTC-04:00)

Vanguard 3 - Visible Passes

Search period start: 23 October 2017 00:00
Search period end: 02 November 2017 00:00
Orbit: 510 x 3263 km, 33.3° (Epoch: 23 October)

Date Brightness Start Highest point End Pass type
(mag) Time Alt. Az. Time Alt. Az. Time Alt. Az.
23 Oct 10.7 02:27:52 20° SE 02:27:52 20° SE 02:33:25 10° ESE visible
23 Oct 9.8 04:32:27 29° SSW 04:37:45 37° SSE 04:46:36 10° ESE visible
23 Oct 9.3 06:39:05 10° WSW 06:50:29 40° S 06:57:16 10° ESE visible
24 Oct 10.2 03:22:53 33° SSE 03:22:53 33° SSE 03:32:57 10° ESE visible
24 Oct 9.5 05:27:28 21° SW 05:36:19 43° S 05:44:33 10° ESE visible
25 Oct 10.7 02:13:16 22° ESE 02:13:16 22° ESE 02:18:29 10° ESE visible
25 Oct 9.8 04:17:51 36° SSW 04:21:38 41° S 04:31:24 10° ESE visible
25 Oct 9.4 06:22:26 11° WSW 06:34:39 42° S 06:42:05 10° ESE visible
26 Oct 10.1 03:08:11 36° SSE 03:08:11 36° SSE 03:17:43 10° E visible
26 Oct 9.5 05:12:46 28° SW 05:20:17 46° S 05:29:19 10° ESE visible
27 Oct 10.7 01:58:29 22° ESE 01:58:29 22° ESE 02:03:15 10° E visible
27 Oct 9.8 04:03:04 43° S 04:05:24 45° S 04:16:05 10° ESE visible
27 Oct 9.5 06:07:38 16° WSW 06:18:41 44° SSW 06:26:49 10° SE visible
28 Oct 10.1 02:53:20 38° SE 02:53:20 38° SE 03:02:19 10° E visible
28 Oct 9.6 04:57:55 34° SW 05:04:09 49° S 05:13:59 10° ESE visible
28 Oct 9.6 07:05:03 10° W 07:16:39 35° SSW 07:23:48 10° SE visible
29 Oct 10.8 01:43:36 21° ESE 01:43:36 21° ESE 01:47:48 10° E visible
29 Oct 9.8 03:48:10 48° S 03:49:01 49° S 04:00:40 10° ESE visible
29 Oct 9.5 05:52:44 21° WSW 06:02:36 45° SSW 06:11:29 10° SE visible
30 Oct 10.2 02:38:25 38° SE 02:38:25 38° SE 02:46:46 10° E visible
30 Oct 9.6 04:42:59 41° SW 04:47:52 50° S 04:58:35 10° ESE visible
30 Oct 9.7 06:48:07 10° W 07:00:34 35° SSW 07:08:22 10° SSE visible
31 Oct 10.9 01:28:39 20° ESE 01:28:39 20° ESE 01:32:09 10° E visible
31 Oct 9.8 03:33:13 51° SSE 03:33:13 51° SSE 03:45:07 10° ESE visible
31 Oct 9.6 05:37:47 26° WSW 05:46:23 45° SSW 05:56:02 10° SE visible
01 Nov 10.4 02:23:26 36° ESE 02:23:26 36° ESE 02:31:04 10° E visible
01 Nov 9.7 04:28:01 47° SW 04:31:28 52° S 04:43:03 10° ESE visible
01 Nov 9.8 06:32:35 13° W 06:44:21 34° SSW 06:52:49 10° SSE visible
